Hourly Weather Dakor

Today, 18 January, Monday

Time Temperature Precipitation Wind Pressure Humidity
00:00 +22°C° 0 mm 1 mps 753 mmHg 45%
01:00 +21°C° 0 mm 1 mps 753 mmHg 48%
02:00 +20°C° 0 mm 1 mps 752 mmHg 50%
03:00 +20°C° 0 mm 1 mps 752 mmHg 51%
04:00 +20°C° 0 mm 1 mps 753 mmHg 53%
05:00 +17°C° 0 mm 0 mps 753 mmHg 58%
06:00 +18°C° 0 mm 0 mps 753 mmHg 55%
07:00 +19°C° 0 mm 0 mps 754 mmHg 52%
08:00 +21°C° 0 mm 0 mps 754 mmHg 49%
09:00 +23°C° 0 mm 0 mps 754 mmHg 42%
10:00 +26°C° 0 mm 0 mps 755 mmHg 36%
11:00 +29°C° 0 mm 0 mps 755 mmHg 30%
12:00 +32°C° 0 mm 1 mps 754 mmHg 27%
13:00 +33°C° 0 mm 1 mps 754 mmHg 23%
14:00 +35°C° 0 mm 2 mps 753 mmHg 19%
15:00 +34°C° 0 mm 2 mps 753 mmHg 20%
16:00 +34°C° 0 mm 2 mps 752 mmHg 22%
17:00 +32°C° 0 mm 2 mps 752 mmHg 23%
18:00 +30°C° 0 mm 2 mps 753 mmHg 25%
19:00 +27°C° 0 mm 2 mps 753 mmHg 27%
20:00 +25°C° 0 mm 2 mps 754 mmHg 30%
21:00 +24°C° 0 mm 2 mps 754 mmHg 31%
22:00 +23°C° 0 mm 2 mps 754 mmHg 32%
23:00 +21°C° 0 mm 2 mps 754 mmHg 33%

Tomorrow, 19 January, Tuesday

Time Temperature Precipitation Wind Pressure Humidity
00:00 +21°C° 0 mm 2 mps 753 mmHg 33%
01:00 +20°C° 0 mm 2 mps 753 mmHg 33%
02:00 +20°C° 0 mm 2 mps 753 mmHg 33%
03:00 +19°C° 0 mm 2 mps 753 mmHg 34%
04:00 +19°C° 0 mm 2 mps 753 mmHg 35%
05:00 +18°C° 0 mm 2 mps 753 mmHg 37%
06:00 +19°C° 0 mm 2 mps 753 mmHg 37%
07:00 +19°C° 0 mm 2 mps 754 mmHg 37%
08:00 +20°C° 0 mm 2 mps 755 mmHg 38%
09:00 +24°C° 0 mm 2 mps 755 mmHg 33%
10:00 +27°C° 0 mm 2 mps 755 mmHg 29%
11:00 +30°C° 0 mm 2 mps 755 mmHg 24%
12:00 +31°C° 0 mm 2 mps 754 mmHg 21%
13:00 +32°C° 0 mm 2 mps 753 mmHg 19%
14:00 +35°C° 0 mm 2 mps 752 mmHg 16%
15:00 +34°C° 0 mm 2 mps 752 mmHg 17%
16:00 +32°C° 0 mm 2 mps 752 mmHg 18%
17:00 +32°C° 0 mm 2 mps 752 mmHg 19%
18:00 +29°C° 0 mm 2 mps 753 mmHg 21%
19:00 +27°C° 0 mm 3 mps 753 mmHg 24%
20:00 +24°C° 0 mm 3 mps 754 mmHg 26%
21:00 +23°C° 0 mm 2 mps 754 mmHg 28%
22:00 +21°C° 0 mm 2 mps 754 mmHg 29%
23:00 +20°C° 0 mm 2 mps 754 mmHg 31%

Day after tomorrow, 20 January, Wednesday

Time Temperature Precipitation Wind Pressure Humidity
00:00 +20°C° 0 mm 2 mps 754 mmHg 32%
01:00 +19°C° 0 mm 2 mps 754 mmHg 33%
02:00 +18°C° 0 mm 2 mps 753 mmHg 34%
03:00 +18°C° 0 mm 2 mps 753 mmHg 35%
04:00 +17°C° 0 mm 2 mps 753 mmHg 37%
05:00 +17°C° 0 mm 2 mps 753 mmHg 38%
06:00 +18°C° 0 mm 2 mps 754 mmHg 40%
07:00 +18°C° 0 mm 2 mps 755 mmHg 41%
08:00 +19°C° 0 mm 2 mps 755 mmHg 42%
09:00 +23°C° 0 mm 2 mps 755 mmHg 36%
10:00 +26°C° 0 mm 2 mps 755 mmHg 30%
11:00 +29°C° 0 mm 2 mps 755 mmHg 25%
12:00 +30°C° 0 mm 2 mps 755 mmHg 22%
13:00 +32°C° 0 mm 2 mps 754 mmHg 19%
14:00 +34°C° 0 mm 2 mps 753 mmHg 16%
15:00 +32°C° 0 mm 2 mps 753 mmHg 18%
16:00 +32°C° 0 mm 2 mps 753 mmHg 19%
17:00 +31°C° 0 mm 2 mps 753 mmHg 21%
18:00 +29°C° 0 mm 1 mps 753 mmHg 23%
19:00 +26°C° 0 mm 1 mps 754 mmHg 26%
20:00 +24°C° 0 mm 1 mps 754 mmHg 29%
21:00 +23°C° 0 mm 2 mps 754 mmHg 30%
22:00 +21°C° 0 mm 2 mps 754 mmHg 31%
23:00 +21°C° 0 mm 2 mps 754 mmHg 33%

21 January, Thursday

Time Temperature Precipitation Wind Pressure Humidity
00:00 +20°C° 0 mm 2 mps 754 mmHg 34%
01:00 +20°C° 0 mm 2 mps 754 mmHg 34%
02:00 +19°C° 0 mm 2 mps 754 mmHg 35%
03:00 +19°C° 0 mm 3 mps 754 mmHg 38%
04:00 +18°C° 0 mm 3 mps 754 mmHg 40%
05:00 +18°C° 0 mm 3 mps 754 mmHg 42%
06:00 +18°C° 0 mm 3 mps 754 mmHg 42%
07:00 +19°C° 0 mm 3 mps 755 mmHg 41%
08:00 +20°C° 0 mm 4 mps 755 mmHg 41%
09:00 +24°C° 0 mm 3 mps 755 mmHg 35%
10:00 +27°C° 0 mm 3 mps 755 mmHg 29%
11:00 +30°C° 0 mm 3 mps 755 mmHg 23%
12:00 +31°C° 0 mm 2 mps 754 mmHg 21%
13:00 +32°C° 0 mm 2 mps 754 mmHg 19%
14:00 +33°C° 0 mm 1 mps 753 mmHg 16%
15:00 +34°C° 0 mm 2 mps 752 mmHg 18%
16:00 +32°C° 0 mm 2 mps 752 mmHg 19%
17:00 +32°C° 0 mm 2 mps 752 mmHg 20%
18:00 +29°C° 0 mm 2 mps 753 mmHg 21%
19:00 +27°C° 0 mm 2 mps 753 mmHg 23%
20:00 +25°C° 0 mm 2 mps 754 mmHg 25%
21:00 +24°C° 0 mm 2 mps 754 mmHg 26%
22:00 +23°C° 0 mm 2 mps 754 mmHg 27%
23:00 +22°C° 0 mm 1 mps 754 mmHg 28%

22 January, Friday

Time Temperature Precipitation Wind Pressure Humidity
00:00 +20°C° 0 mm 2 mps 754 mmHg 28%
01:00 +20°C° 0 mm 2 mps 754 mmHg 29%
02:00 +19°C° 0 mm 2 mps 754 mmHg 30%
03:00 +19°C° 0 mm 2 mps 753 mmHg 31%
04:00 +18°C° 0 mm 2 mps 753 mmHg 31%
05:00 +18°C° 0 mm 2 mps 753 mmHg 32%
06:00 +19°C° 0 mm 2 mps 754 mmHg 32%
07:00 +19°C° 0 mm 2 mps 754 mmHg 32%
08:00 +20°C° 0 mm 2 mps 755 mmHg 31%
09:00 +24°C° 0 mm 2 mps 755 mmHg 28%
10:00 +27°C° 0 mm 1 mps 755 mmHg 24%
11:00 +31°C° 0 mm 1 mps 755 mmHg 20%
12:00 +32°C° 0 mm 1 mps 754 mmHg 19%
13:00 +33°C° 0 mm 1 mps 753 mmHg 17%
14:00 +34°C° 0 mm 1 mps 752 mmHg 15%
15:00 +34°C° 0 mm 1 mps 752 mmHg 16%
16:00 +33°C° 0 mm 1 mps 752 mmHg 17%
17:00 +32°C° 0 mm 2 mps 752 mmHg 18%
18:00 +30°C° 0 mm 2 mps 752 mmHg 21%
19:00 +27°C° 0 mm 2 mps 753 mmHg 23%
20:00 +25°C° 0 mm 2 mps 753 mmHg 25%
21:00 +24°C° 0 mm 2 mps 753 mmHg 26%
22:00 +23°C° 0 mm 2 mps 753 mmHg 27%
23:00 +21°C° 0 mm 2 mps 753 mmHg 28%

23 January, Saturday

Time Temperature Precipitation Wind Pressure Humidity
00:00 +21°C° 0 mm 1 mps 753 mmHg 30%
01:00 +20°C° 0 mm 1 mps 753 mmHg 31%
02:00 +19°C° 0 mm 1 mps 753 mmHg 33%
03:00 +19°C° 0 mm 1 mps 753 mmHg 33%
04:00 +16°C° 0 mm 0 mps 752 mmHg 34%
05:00 +16°C° 0 mm 0 mps 752 mmHg 35%
06:00 +19°C° 0 mm 1 mps 753 mmHg 34%
07:00 +20°C° 0 mm 1 mps 753 mmHg 34%
08:00 +21°C° 0 mm 1 mps 754 mmHg 33%
09:00 +23°C° 0 mm 1 mps 754 mmHg 30%
10:00 +26°C° 0 mm 2 mps 754 mmHg 27%
11:00 +29°C° 0 mm 2 mps 754 mmHg 23%
12:00 +31°C° 0 mm 3 mps 753 mmHg 22%
13:00 +33°C° 0 mm 3 mps 752 mmHg 20%
14:00 +35°C° 0 mm 4 mps 752 mmHg 19%
15:00 +34°C° 0 mm 3 mps 751 mmHg 20%
16:00 +34°C° 0 mm 3 mps 751 mmHg 22%
17:00 +32°C° 0 mm 2 mps 751 mmHg 24%
18:00 +29°C° 0 mm 2 mps 751 mmHg 28%
19:00 +26°C° 0 mm 2 mps 752 mmHg 33%
20:00 +24°C° 0 mm 2 mps 752 mmHg 37%
21:00 +23°C° 0 mm 2 mps 753 mmHg 40%
22:00 +21°C° 0 mm 2 mps 753 mmHg 43%
23:00 +20°C° 0 mm 2 mps 753 mmHg 46%
Show more

We Need Your Consent

Meteoprog and our Service Providers may store and access personal data such as cookies, device identifiers or other similar technologies on your device and process such data to personalise content and ads, as well as provide social media features and to analyse the traffic.

  • Store and/or access information on your device

    Cookies, device identifiers or other information can be stored or accessed on your device for the purposes indicated above.

  • Personalised ads and content, ad and content measurement, audience insights, and products development

    Ads and content can be personalised based on a profile. More data can be added to better personalise ads and content. Ad and content performance can be measured. Insights about the audience who saw the ads and content can be derived. Such data can be used to develop or improve user’s experience, systems and software.

By clicking ‘I Agree’ you will allow the use of indicated cookies, device identifiers, web beacons or other similar technologies. Your settings can be changed in the browser on your device.

For certain purposes, legitimate interests may be relied on, rather than consent. You can read more about this in our Privacy and Cookie Policy.